Location: Passau
(48.5830°N, 13.4830°E)
Time: 20:08:26
(UTC+02:00)

Vanguard 3 - Pass Details

Date: 26 May 2024
Orbit: 509 x 3231 km, 33.3° (Epoch: 15 June)

Event Time Altitude Azimuth Distance (km) Brightness Sun altitude
Rises 02:10:29 0° 266° (W) 6,130 11.4 -18.6°
Reaches altitude 10° 02:18:06 10° 242° (WSW) 5,648 11.0 -18.3°
Enters shadow 02:21:41 12° 230° (SW) 5,631 10.9 -18.1°
Maximum altitude 02:24:16 13° 221° (SW) 5,696 - -17.9°
Drops below altitude 10° 02:30:54 10° 201° (SSW) 6,118 - -17.5°
Sets 02:40:20 0° 178° (S) 7,139 - -16.9°
